Stündliche Wetter Abaza

Heute, 22 Juni, Dienstag

Zeit Temperatur Niederschläge Wind Luftdruck Luftfeuchtigkeit
00:00 +9°C° 0 mm 0 m/S 714 mmHg 91%
01:00 +10°C° 0 mm 1 m/S 713 mmHg 92%
02:00 +9°C° 0 mm 1 m/S 713 mmHg 92%
03:00 +9°C° 0 mm 1 m/S 713 mmHg 93%
04:00 +10°C° 0 mm 1 m/S 712 mmHg 88%
05:00 +10°C° 0 mm 0 m/S 712 mmHg 83%
06:00 +12°C° 0 mm 0 m/S 711 mmHg 78%
07:00 +15°C° 0 mm 1 m/S 712 mmHg 71%
08:00 +16°C° 0 mm 1 m/S 712 mmHg 64%
09:00 +19°C° 0 mm 1 m/S 712 mmHg 57%
10:00 +18°C° 0 mm 3 m/S 712 mmHg 59%
11:00 +18°C° 0 mm 4 m/S 713 mmHg 60%
12:00 +19°C° 0 mm 6 m/S 713 mmHg 61%
13:00 +16°C° 0.6 mm 5 m/S 713 mmHg 67%
14:00 +16°C° 0.6 mm 3 m/S 714 mmHg 74%
15:00 +15°C° 0.6 mm 2 m/S 714 mmHg 81%
16:00 +16°C° 0 mm 1 m/S 714 mmHg 79%
17:00 +16°C° 0 mm 1 m/S 714 mmHg 77%
18:00 +16°C° 0 mm 1 m/S 714 mmHg 76%
19:00 +15°C° 1.1 mm 1 m/S 715 mmHg 82%
20:00 +14°C° 1.1 mm 1 m/S 715 mmHg 89%
21:00 +13°C° 1.1 mm 1 m/S 715 mmHg 96%
22:00 +13°C° 1.5 mm 1 m/S 715 mmHg 97%
23:00 +12°C° 1.5 mm 1 m/S 715 mmHg 97%

Morgen, 23 Juni, Mittwoch

Zeit Temperatur Niederschläge Wind Luftdruck Luftfeuchtigkeit
00:00 +12°C° 1.5 mm 1 m/S 715 mmHg 98%
01:00 +12°C° 1.4 mm 1 m/S 716 mmHg 97%
02:00 +10°C° 1.4 mm 2 m/S 716 mmHg 96%
03:00 +9°C° 1.4 mm 2 m/S 717 mmHg 96%
04:00 +10°C° 0.1 mm 2 m/S 717 mmHg 94%
05:00 +10°C° 0.1 mm 2 m/S 717 mmHg 93%
06:00 +11°C° 0.1 mm 1 m/S 718 mmHg 92%
07:00 +12°C° 0 mm 1 m/S 718 mmHg 85%
08:00 +13°C° 0 mm 2 m/S 718 mmHg 77%
09:00 +14°C° 0 mm 2 m/S 718 mmHg 70%
10:00 +14°C° 0.1 mm 2 m/S 718 mmHg 69%
11:00 +13°C° 0.1 mm 3 m/S 718 mmHg 68%
12:00 +14°C° 0.1 mm 3 m/S 718 mmHg 67%
13:00 +14°C° 0.2 mm 3 m/S 718 mmHg 64%
14:00 +16°C° 0.2 mm 3 m/S 718 mmHg 62%
15:00 +16°C° 0.2 mm 3 m/S 718 mmHg 59%
16:00 +16°C° 0.1 mm 2 m/S 718 mmHg 61%
17:00 +16°C° 0.1 mm 2 m/S 718 mmHg 62%
18:00 +16°C° 0.1 mm 1 m/S 718 mmHg 64%
19:00 +14°C° 0 mm 1 m/S 718 mmHg 71%
20:00 +12°C° 0 mm 1 m/S 718 mmHg 78%
21:00 +11°C° 0 mm 1 m/S 718 mmHg 85%
22:00 +10°C° 0 mm 1 m/S 717 mmHg 88%
23:00 +9°C° 0 mm 1 m/S 717 mmHg 90%

übermorgen, 24 Juni, Donnerstag

Zeit Temperatur Niederschläge Wind Luftdruck Luftfeuchtigkeit
00:00 +8°C° 0 mm 1 m/S 717 mmHg 93%
01:00 +8°C° 0 mm 1 m/S 716 mmHg 93%
02:00 +8°C° 0 mm 1 m/S 716 mmHg 94%
03:00 +7°C° 0 mm 1 m/S 715 mmHg 95%
04:00 +8°C° 0 mm 1 m/S 715 mmHg 90%
05:00 +9°C° 0 mm 1 m/S 715 mmHg 86%
06:00 +10°C° 0 mm 1 m/S 714 mmHg 82%
07:00 +13°C° 0 mm 1 m/S 714 mmHg 73%
08:00 +15°C° 0 mm 1 m/S 713 mmHg 63%
09:00 +18°C° 0 mm 1 m/S 713 mmHg 54%
10:00 +19°C° 0 mm 1 m/S 712 mmHg 55%
11:00 +19°C° 0 mm 1 m/S 712 mmHg 57%
12:00 +18°C° 0 mm 2 m/S 712 mmHg 58%
13:00 +19°C° 0 mm 2 m/S 711 mmHg 56%
14:00 +20°C° 0 mm 2 m/S 711 mmHg 55%
15:00 +21°C° 0 mm 2 m/S 710 mmHg 53%
16:00 +19°C° 0.6 mm 2 m/S 711 mmHg 65%
17:00 +19°C° 0.6 mm 1 m/S 711 mmHg 78%
18:00 +16°C° 0.6 mm 1 m/S 711 mmHg 90%
19:00 +15°C° 0.1 mm 1 m/S 712 mmHg 92%
20:00 +15°C° 0.1 mm 1 m/S 712 mmHg 94%
21:00 +14°C° 0.1 mm 1 m/S 712 mmHg 97%
22:00 +13°C° 2.2 mm 1 m/S 712 mmHg 97%
23:00 +13°C° 2.2 mm 1 m/S 712 mmHg 98%

25 Juni, Freitag

Zeit Temperatur Niederschläge Wind Luftdruck Luftfeuchtigkeit
00:00 +13°C° 2.2 mm 1 m/S 712 mmHg 98%
01:00 +12°C° 1.1 mm 1 m/S 712 mmHg 98%
02:00 +12°C° 1.1 mm 1 m/S 712 mmHg 97%
03:00 +11°C° 1.1 mm 1 m/S 712 mmHg 97%
04:00 +11°C° 1.4 mm 1 m/S 713 mmHg 97%
05:00 +11°C° 1.4 mm 1 m/S 713 mmHg 96%
06:00 +11°C° 1.4 mm 1 m/S 714 mmHg 96%
07:00 +11°C° 2.3 mm 1 m/S 714 mmHg 95%
08:00 +11°C° 2.3 mm 1 m/S 715 mmHg 94%
09:00 +11°C° 2.3 mm 1 m/S 716 mmHg 93%
10:00 +13°C° 0 mm 1 m/S 715 mmHg 79%
11:00 +16°C° 0 mm 1 m/S 715 mmHg 65%
12:00 +19°C° 0 mm 1 m/S 715 mmHg 51%
13:00 +19°C° 0 mm 1 m/S 715 mmHg 50%
14:00 +19°C° 0 mm 1 m/S 715 mmHg 50%
15:00 +19°C° 0 mm 1 m/S 715 mmHg 49%
16:00 +19°C° 0 mm 1 m/S 715 mmHg 53%
17:00 +17°C° 0 mm 2 m/S 715 mmHg 56%
18:00 +17°C° 0 mm 2 m/S 715 mmHg 60%
19:00 +15°C° 0 mm 1 m/S 715 mmHg 65%
20:00 +14°C° 0 mm 1 m/S 716 mmHg 70%
21:00 +12°C° 0 mm 1 m/S 716 mmHg 76%
22:00 +12°C° 0.2 mm 1 m/S 716 mmHg 80%
23:00 +11°C° 0.2 mm 1 m/S 716 mmHg 84%

26 Juni, Samstag

Zeit Temperatur Niederschläge Wind Luftdruck Luftfeuchtigkeit
00:00 +11°C° 0.2 mm 1 m/S 716 mmHg 88%
01:00 +11°C° 2.6 mm 1 m/S 716 mmHg 91%
02:00 +11°C° 2.6 mm 1 m/S 716 mmHg 94%
03:00 +9°C° 2.6 mm 2 m/S 716 mmHg 98%
04:00 +9°C° 2.4 mm 2 m/S 717 mmHg 97%
05:00 +10°C° 2.4 mm 1 m/S 718 mmHg 97%
06:00 +9°C° 2.4 mm 1 m/S 718 mmHg 97%
07:00 +9°C° 0.1 mm 2 m/S 718 mmHg 91%
08:00 +10°C° 0.1 mm 2 m/S 718 mmHg 85%
09:00 +12°C° 0.1 mm 2 m/S 718 mmHg 79%
10:00 +14°C° 0 mm 2 m/S 718 mmHg 72%
11:00 +15°C° 0 mm 1 m/S 718 mmHg 65%
12:00 +16°C° 0 mm 1 m/S 718 mmHg 58%
13:00 +18°C° 0 mm 1 m/S 718 mmHg 58%
14:00 +17°C° 0 mm 2 m/S 718 mmHg 58%
15:00 +17°C° 0 mm 2 m/S 718 mmHg 57%
16:00 +17°C° 0 mm 2 m/S 718 mmHg 59%
17:00 +17°C° 0 mm 2 m/S 718 mmHg 61%
18:00 +17°C° 0 mm 2 m/S 718 mmHg 63%
19:00 +15°C° 0 mm 2 m/S 718 mmHg 70%
20:00 +13°C° 0 mm 1 m/S 718 mmHg 77%
21:00 +12°C° 0 mm 1 m/S 718 mmHg 85%
22:00 +12°C° 0 mm 1 m/S 718 mmHg 85%
23:00 +11°C° 0 mm 1 m/S 718 mmHg 85%

27 Juni, Sonntag

Zeit Temperatur Niederschläge Wind Luftdruck Luftfeuchtigkeit
00:00 +11°C° 0 mm 1 m/S 718 mmHg 86%
01:00 +11°C° 0 mm 1 m/S 718 mmHg 87%
02:00 +11°C° 0 mm 1 m/S 718 mmHg 89%
03:00 +10°C° 0 mm 1 m/S 718 mmHg 91%
04:00 +11°C° 0 mm 1 m/S 718 mmHg 88%
05:00 +11°C° 0 mm 1 m/S 718 mmHg 86%
06:00 +12°C° 0 mm 1 m/S 718 mmHg 83%
07:00 +13°C° 0.1 mm 1 m/S 718 mmHg 83%
08:00 +13°C° 0.1 mm 1 m/S 718 mmHg 83%
09:00 +14°C° 0.1 mm 1 m/S 718 mmHg 82%
10:00 +14°C° 0.1 mm 1 m/S 718 mmHg 82%
11:00 +14°C° 0.1 mm 1 m/S 718 mmHg 83%
12:00 +14°C° 0.1 mm 1 m/S 718 mmHg 83%
13:00 +16°C° 0 mm 1 m/S 718 mmHg 74%
14:00 +18°C° 0 mm 1 m/S 718 mmHg 65%
15:00 +20°C° 0 mm 1 m/S 718 mmHg 57%
16:00 +19°C° 0.3 mm 1 m/S 718 mmHg 65%
17:00 +18°C° 0.3 mm 1 m/S 718 mmHg 73%
18:00 +15°C° 0.3 mm 1 m/S 718 mmHg 81%
19:00 +14°C° 0 mm 1 m/S 718 mmHg 84%
20:00 +13°C° 0 mm 1 m/S 718 mmHg 87%
21:00 +12°C° 0 mm 1 m/S 718 mmHg 89%
22:00 +12°C° 0 mm 1 m/S 718 mmHg 90%
23:00 +11°C° 0 mm 1 m/S 718 mmHg 92%
Mehr zeigen

Wir brauchen deine Erlaubnis

Meteoprog und unser Service Anbieter werden persönliche Daten aufbewahren, so wie Cookies, Geräte Bezeichnung oder ähnliche Technologien von deinem Gerät und Prozess, so wie Persönliche Daten Inhalte und Werbungen, genauso wie social Media und den Verkehr zu analysieren.

  • Aufbewahrung und/oder Zugang zu deiner Geräte Informationen.

    Cookies, Geräte Bezeichnung oder andere Informationen, können aufbewahrt oder Zugang zu deinem Gerät erhalten, für den Grund, der oben angegeben wird.

  • Personalisierte Werbung und Inhalte, Messungen, Einblick in das Publikum und Produkt Entwicklung.

    Werbungen und Inhalte können personalisiert werden, basierend auf ein Profil. Mehr Daten können besser personalisierte Werbungen und Inhalte hinzufügen. Werbung und Inhalte können gezeigt und gemessen werden. Einblicke über das Publikum, welche die Werbung gesehen haben und den Inhalt, können abgeleitet werden. So wie Daten können genutzt werden, um es zu verbessern oder die Benutzer Erfahrung zu verbessern das System und die Software.

Wenn du “Ich stimme zu” klickst, erlaubst du uns, die Cookies zu benutzen die Geräte Bezeichnung, den Web oder ähnliche Technologien zu benutzen. Deine Settings, können in deinem Gerät bei deinem Browser geändert werden.

Für den bestimmten Zweck, berechtigten Interessen beruhen darauf, mehr als auf den Inhalt. Du kannst mehr darüber in unseren Privaten und Cookie Politik lesen.